Location: Mentone
(34.5413°N, 85.5351°W)
Time: 10:52:32
(UTC-05:00)

Vanguard 2 Rocket - Visible Passes

Search period start: 20 April 2014 00:00
Search period end: 30 April 2014 00:00
Orbit: 555 x 3337 km, 32.9° (Epoch: 19 April)

Date Brightness Start Highest point End Pass type
(mag) Time Alt. Az. Time Alt. Az. Time Alt. Az.
21 Apr 10.9 05:40:09 10° SSE 05:46:06 13° SE 05:51:16 10° SE visible
24 Apr 10.9 04:54:01 10° S 05:03:56 17° SE 05:12:16 10° ESE visible
25 Apr 11.0 04:00:21 10° SSE 04:04:06 11° SE 04:07:41 10° SE visible
26 Apr 10.5 05:06:36 10° SSW 05:21:12 27° SE 05:32:29 10° E visible
27 Apr 10.8 04:08:56 10° S 04:21:19 20° SE 04:31:54 10° ESE visible
28 Apr 10.9 03:13:33 10° SSE 03:21:24 13° SE 03:28:47 10° ESE visible
28 Apr 10.2 05:21:00 10° SSW 05:38:17 38° SSE 05:51:02 10° E visible
29 Apr 10.4 04:22:12 10° SSW 04:38:16 31° SE 04:51:26 10° E visible
